Погода в Козлово

Россия / Забайкальский край     51°12′24″N   118°55′51″E
темп.,
°C
ветер,
м/с
пор.,
м/с
влажн.,
%
обл.,
%
осадки,
мм/ч
давл.,
гПа
погр.,
м
15 апреля, чт
чт1500:00−3зсз2263100 0.0 101010
03:00−4зсз2264100 0.0 101011
06:00−4сз2165100 0.0 101011
09:000св1148100 0.0 1009316
12:00+3всв2333100 0.0 10071911
15:00+4св3327100 0.0 10062308
18:00+3св3334100 0.0 10071750
21:000ссв2247100 0.0 100924
16 апреля, пт
пт1600:00−2ссз2255100 0.0 101115
03:00−4ссз2244100 0.0 101226
06:00−5ссз3351100 0.0 101245
09:00+1с4741100 0.0 1013948
12:00+4ссв5730100 0.0 10132832
15:00+6ссв5725100 0.0 10123032
18:00+6ссв452093 0.0 10132675
21:000ссз21302 0.0 101510
17 апреля, сб
сб1700:00−2з11350 0.0 101610
03:00−3зюз11380 0.0 101610
06:00−3юз22395 0.0 101510
09:00+4юз36270 0.0 1013591
12:00+10юз57290 0.0 10091456
15:00+14зюз572311 0.0 10052074
18:00+13зсз68257 0.0 10041940
21:00+7зюз22405 0.0 100710
18 апреля, вс
вс1800:00+5зюз22442 0.0 100710
03:00+4з11485 0.0 100710
06:00+2зсз11525 0.0 100810
09:00+9юз01387 0.0 1007252
12:00+14юв1226100 0.0 10051620
15:00+16юв1321100 0.0 10042906
18:00+14ю322764 0.0 10041994
21:00+9ююв11385 0.0 100610
19 апреля, пн
пн1900:00+7ююз11435 0.0 100610
03:00+5зюз22485 0.0 100710
06:00+5зсз3450100 0.0 1009112
09:00+7сз59486 0.0 1012786
12:00+10сз683178 0.0 10121617
15:00+12сз69235 0.0 10122460
18:00+10ссз68160 0.0 10152245
21:00+4ссз22275 0.0 101918